Location: Lourdes
(43.1000°N, 0.0500°W)
Time: 09:36:15
(UTC+00:00)

Cosmos 2341 Rocket - Pass Details

Date: 30 November 2020
Orbit: 969 x 1004 km, 82.9° (Epoch: 25 January)

Event Time Altitude Azimuth Distance (km) Brightness Sun altitude
Rises 16:47:05 0° 355° (N) 3,699 6.8 -4.2°
Reaches altitude 10° 16:49:40 10° 0° (N) 2,752 6.1 -4.6°
Maximum altitude 16:55:52 56° 78° (ENE) 1,173 4.2 -5.6°
Drops below altitude 10° 17:02:04 10° 156° (SSE) 2,757 6.4 -6.6°
Sets 17:04:39 0° 161° (SSE) 3,706 7.1 -7.1°
